TimeCDT,TemperatureF,Dew PointF,Humidity,Sea Level PressureIn,VisibilityMPH,Wind Direction,Wind SpeedMPH,Gust SpeedMPH,PrecipitationIn,Events,Conditions,WindDirDegrees,DateUTC
12:15 AM,84.4,70.9,64,30.05,10.0,SSE,5.8,-,N/A,,Clear,160,2013-07-19 05:15:00
12:35 AM,83.3,70.9,66,30.05,10.0,SSE,8.1,-,N/A,,Clear,160,2013-07-19 05:35:00
12:55 AM,83.1,70.9,66,30.05,10.0,SSE,5.8,-,N/A,,Clear,150,2013-07-19 05:55:00
1:15 AM,82.4,70.9,68,30.04,10.0,SSE,5.8,-,N/A,,Clear,150,2013-07-19 06:15:00
1:35 AM,81.7,71.2,70,30.04,10.0,SSE,4.6,-,N/A,,Clear,150,2013-07-19 06:35:00
1:55 AM,80.8,71.6,73,30.04,10.0,SE,4.6,-,N/A,,Clear,130,2013-07-19 06:55:00
2:15 AM,80.2,71.8,75,30.03,10.0,South,3.5,-,N/A,,Clear,180,2013-07-19 07:15:00
2:35 AM,79.5,72.1,78,30.03,10.0,Calm,Calm,-,N/A,,Clear,0,2013-07-19 07:35:00
2:55 AM,79.5,72.3,79,30.03,10.0,Calm,Calm,-,N/A,,Clear,0,2013-07-19 07:55:00
3:15 AM,78.4,72.5,82,30.03,10.0,Calm,Calm,-,N/A,,Clear,0,2013-07-19 08:15:00
3:35 AM,77.9,72.5,83,30.03,10.0,East,3.5,-,N/A,,Clear,80,2013-07-19 08:35:00
3:55 AM,76.6,72.1,86,30.03,10.0,NE,3.5,-,N/A,,Clear,50,2013-07-19 08:55:00
4:15 AM,77.0,72.1,85,30.02,10.0,East,3.5,-,N/A,,Clear,80,2013-07-19 09:15:00
4:35 AM,76.6,72.1,86,30.03,10.0,East,3.5,-,N/A,,Clear,100,2013-07-19 09:35:00
4:55 AM,77.2,72.5,85,30.03,10.0,Calm,Calm,-,N/A,,Clear,0,2013-07-19 09:55:00
5:15 AM,76.1,72.7,89,30.03,10.0,SE,3.5,-,N/A,,Clear,130,2013-07-19 10:15:00
5:35 AM,76.1,72.5,89,30.04,10.0,SE,3.5,-,N/A,,Clear,130,2013-07-19 10:35:00
5:55 AM,76.5,72.5,87,30.05,10.0,SE,3.5,-,N/A,,Clear,140,2013-07-19 10:55:00
6:15 AM,76.3,72.3,87,30.05,10.0,SE,3.5,-,N/A,,Clear,130,2013-07-19 11:15:00
6:35 AM,76.1,72.1,87,30.05,10.0,Calm,Calm,-,N/A,,Clear,0,2013-07-19 11:35:00
6:55 AM,76.1,72.5,89,30.05,10.0,Calm,Calm,-,N/A,,Clear,0,2013-07-19 11:55:00
7:15 AM,76.1,72.5,89,30.05,10.0,Calm,Calm,-,N/A,,Clear,0,2013-07-19 12:15:00
7:35 AM,76.8,72.9,88,30.05,10.0,Calm,Calm,-,N/A,,Clear,0,2013-07-19 12:35:00
7:55 AM,79.0,73.6,83,30.05,10.0,Calm,Calm,-,N/A,,Clear,0,2013-07-19 12:55:00
8:15 AM,80.1,73.4,80,30.05,10.0,Calm,Calm,-,N/A,,Clear,0,2013-07-19 13:15:00
8:35 AM,81.7,73.6,76,30.06,10.0,SE,3.5,-,N/A,,Clear,130,2013-07-19 13:35:00
8:55 AM,82.6,74.1,75,30.06,10.0,SE,3.5,-,N/A,,Clear,130,2013-07-19 13:55:00
9:15 AM,83.7,74.3,73,30.06,10.0,SSE,4.6,-,N/A,,Clear,160,2013-07-19 14:15:00
9:35 AM,84.2,74.3,72,30.06,10.0,Calm,Calm,-,N/A,,Clear,0,2013-07-19 14:35:00
9:55 AM,85.6,74.5,69,30.06,10.0,Calm,Calm,-,N/A,,Clear,0,2013-07-19 14:55:00
10:15 AM,87.1,75.0,67,30.05,10.0,WSW,4.6,-,N/A,,Clear,240,2013-07-19 15:15:00
10:35 AM,89.1,75.6,64,30.05,10.0,Calm,Calm,-,N/A,,Clear,0,2013-07-19 15:35:00
10:55 AM,89.1,74.8,63,30.05,10.0,Calm,Calm,-,N/A,,Clear,0,2013-07-19 15:55:00
11:15 AM,90.5,75.0,60,30.05,10.0,Calm,Calm,-,N/A,,Clear,0,2013-07-19 16:15:00
11:35 AM,92.1,75.2,58,30.04,10.0,WSW,3.5,-,N/A,,Clear,250,2013-07-19 16:35:00
11:55 AM,92.5,75.2,57,30.03,10.0,SW,4.6,-,N/A,,Clear,220,2013-07-19 16:55:00
12:15 PM,93.0,75.6,57,30.03,10.0,SW,3.5,-,N/A,,Clear,220,2013-07-19 17:15:00
12:35 PM,94.8,75.6,54,30.02,10.0,Calm,Calm,-,N/A,,Clear,0,2013-07-19 17:35:00
12:55 PM,94.8,75.6,54,30.01,10.0,Calm,Calm,-,N/A,,Clear,0,2013-07-19 17:55:00
1:15 PM,97.2,74.8,49,30.00,10.0,Calm,Calm,-,N/A,,Mostly Cloudy,0,2013-07-19 18:15:00
1:35 PM,97.5,75.0,48,29.99,10.0,WSW,3.5,-,N/A,,Mostly Cloudy,250,2013-07-19 18:35:00
1:55 PM,96.6,74.1,48,29.97,10.0,West,4.6,-,N/A,Thunderstorm,Overcast,260,2013-07-19 18:55:00
2:15 PM,96.8,73.6,47,29.97,10.0,SW,4.6,-,N/A,,Overcast,230,2013-07-19 19:15:00
2:35 PM,95.2,72.0,47,29.96,10.0,SSW,4.6,-,N/A,,Overcast,210,2013-07-19 19:35:00
2:55 PM,94.1,73.0,50,29.96,10.0,Calm,Calm,-,N/A,Thunderstorm,Overcast,0,2013-07-19 19:55:00
3:15 PM,80.1,73.6,81,30.02,1.2,West,9.2,28.8,N/A,Rain-Thunderstorm,Heavy Thunderstorms and Rain,270,2013-07-19 20:15:00
3:35 PM,-9999,-9999,N/A,30.02,0.2,SSE,24.2,36.8,N/A,Rain-Thunderstorm,Heavy Thunderstorms and Rain,160,2013-07-19 20:35:00
3:55 PM,75.6,73.2,92,30.01,0.8,South,17.3,32.2,N/A,Rain-Thunderstorm,Heavy Thunderstorms and Rain,180,2013-07-19 20:55:00
4:15 PM,74.8,71.8,90,29.98,10.0,South,9.2,-,N/A,Rain-Thunderstorm,Light Thunderstorms and Rain,190,2013-07-19 21:15:00
4:35 PM,74.8,70.5,86,29.98,10.0,South,5.8,-,N/A,Rain-Thunderstorm,Light Thunderstorms and Rain,190,2013-07-19 21:35:00
4:55 PM,76.3,73.6,91,30.00,10.0,SSW,13.8,18.4,N/A,Rain-Thunderstorm,Light Thunderstorms and Rain,210,2013-07-19 21:55:00
5:35 PM,76.5,73.9,92,29.99,10.0,West,4.6,-,N/A,Rain-Thunderstorm,Light Thunderstorms and Rain,270,2013-07-19 22:35:00
5:55 PM,76.5,74.3,93,29.99,10.0,NW,4.6,-,N/A,Rain,Light Rain,310,2013-07-19 22:55:00
6:15 PM,76.6,74.8,94,29.98,10.0,NNW,4.6,-,N/A,Rain,Light Rain,330,2013-07-19 23:15:00
6:35 PM,76.5,74.3,93,29.97,10.0,Calm,Calm,-,N/A,Rain,Light Rain,0,2013-07-19 23:35:00
6:55 PM,77.0,74.1,91,29.96,10.0,Calm,Calm,-,N/A,,Scattered Clouds,0,2013-07-19 23:55:00
7:15 PM,77.2,74.8,92,29.96,10.0,Calm,Calm,-,N/A,,Clear,0,2013-07-20 00:15:00
7:35 PM,77.0,75.4,95,29.96,10.0,ESE,3.5,-,N/A,,Clear,110,2013-07-20 00:35:00
7:55 PM,76.6,75.2,95,29.95,10.0,SE,4.6,-,N/A,,Clear,130,2013-07-20 00:55:00
8:15 PM,76.5,74.5,94,29.95,10.0,Calm,Calm,-,N/A,,Clear,0,2013-07-20 01:15:00
8:35 PM,76.6,74.8,94,29.96,10.0,East,5.8,-,N/A,,Clear,90,2013-07-20 01:35:00
8:55 PM,77.2,75.7,95,29.96,7.0,East,6.9,-,N/A,,Scattered Clouds,100,2013-07-20 01:55:00
9:15 PM,77.2,76.1,96,29.96,7.0,ESE,8.1,-,N/A,,Mostly Cloudy,120,2013-07-20 02:15:00
9:35 PM,77.4,76.1,96,29.98,7.0,East,4.6,-,N/A,,Scattered Clouds,100,2013-07-20 02:35:00
9:55 PM,77.2,75.7,95,29.98,7.0,Calm,Calm,-,N/A,,Clear,0,2013-07-20 02:55:00
10:15 PM,76.6,75.2,95,29.98,7.0,Calm,Calm,-,N/A,,Clear,0,2013-07-20 03:15:00
10:35 PM,76.6,75.2,95,29.98,7.0,Calm,Calm,-,N/A,,Clear,0,2013-07-20 03:35:00
10:55 PM,76.3,75.0,96,29.98,7.0,Calm,Calm,-,N/A,,Clear,0,2013-07-20 03:55:00
11:15 PM,76.1,74.7,95,29.98,5.0,Calm,Calm,-,N/A,,Clear,0,2013-07-20 04:15:00
11:35 PM,76.1,75.2,97,29.98,7.0,Calm,Calm,-,N/A,,Clear,0,2013-07-20 04:35:00
11:55 PM,76.1,74.7,95,29.98,7.0,Calm,Calm,-,N/A,,Clear,0,2013-07-20 04:55:00